Regional Weather Roundup
Issued by NWS Upton, NY

Current Version | Previous Version | Graphics & Text | Print | Product List | Glossary Off
Versions: 1 2 3 4 5 6 7 8 9 10 11 12 13 14 15 16 17 18 19 20 21 22 23 24 25 26 27 28 29 30

000
ASUS41 KOKX 240304
RWROKX

REGIONAL WEATHER ROUNDUP
NATIONAL WEATHER SERVICE NEW YORK NY
1100 PM EDT TUE AUG 23 2016

NOTE: "FAIR" INDICATES FEW OR NO CLOUDS BELOW 12,000 FEET WITH NO
SIGNIFICANT WEATHER AND/OR OBSTRUCTIONS TO VISIBILITY.

NYZ071-072-176-178-NJZ106-104-240400-
NEW YORK CITY METRO AREA

CITY           SKY/WX    TMP DP  RH WIND       PRES   REMARKS
Central Park   CLEAR     75  56  51 W3        30.29S
LaGuardia APRT PTCLDY    76  59  55 S10       30.26S
Kennedy INTL   PTCLDY    72  64  76 SW10      30.28R
Newark/Liberty CLEAR     72  59  63 S9        30.27R
Bronx Bot Gard   N/A     70  59  68 E1        30.28S
Wall St Helipt CLEAR     73  63  68 SW6       30.28R
Teterboro      CLEAR     73  56  54 S3        30.25S
$$

NYZ177-179-078>081-240400-
LONG ISLAND NEW YORK

CITY           SKY/WX    TMP DP  RH WIND       PRES   REMARKS
Farmingdale    CLEAR     71  62  73 SW6       30.28R
MacArthur/ISP  CLEAR     70  60  70 SW7       30.27S
Shirley        CLEAR     68  59  73 SW3       30.28S
Riverhead      NOT AVBL
Westhampton    CLEAR     59  56  89 CALM      30.29S
Southampton      N/A     70  64  83 SW3       30.24S
Bridgehampton    N/A     63  59  88 CALM      30.27S
East Hampton   FAIR      58  56  93 CALM      30.27S
Montauk          N/A     69  60  73 SW6       30.28S
$$

NYZ052-065-067-240400-
HUDSON VALLEY

CITY           SKY/WX    TMP DP  RH WIND       PRES   REMARKS
White Plains   CLEAR     65  59  81 CALM      30.27S
Newburgh       CLEAR     66  59  77 W5        30.27S
Montgomery     CLEAR     63  60  90 CALM      30.26S
Poughkeepsie   CLEAR     64  59  83 CALM      30.25R
Albany         CLEAR     66  59  78 CALM      30.24S
$$

NJZ001-105-106-008-010-013-015-019>022-104-240400-
NEW JERSEY

CITY           SKY/WX    TMP DP  RH WIND       PRES   REMARKS
Newark/Liberty CLEAR     72  59  63 S9        30.27R
Teterboro      CLEAR     73  56  54 S3        30.25S
Caldwell         N/A     68  58  70 CALM      30.28R
Morristown     CLEAR     59  59 100 CALM      30.27S
Somerville     CLEAR     63  60  90 CALM      30.26R
Linden         FAIR      71  56  58 CALM      30.29R
Sussex         CLEAR     60  59  96 CALM      30.28S
Abdover          N/A     59  58  96 CALM      30.28F
Trenton        CLEAR     66  57  72 CALM      30.28R
Millville      CLEAR     62  61  96 CALM      30.30R
Atlantic City  CLEAR     67  58  72 SW3       30.29S
Wrightstown    CLEAR     66  57  72 S7        30.26S
Toms River     CLEAR     60  57  89 CALM      30.30S
Belmar         CLEAR     66  57  72 SW6       30.30R
$$

PAZ047>061-062-071-240400-
EASTERN PENNSYLVANIA

CITY           SKY/WX    TMP DP  RH WIND       PRES   REMARKS
Philadelphia   CLEAR     74  61  63 SW3       30.29R
Allentown      CLEAR     65  57  75 CALM      30.28S
Scranton       CLEAR     64  57  78 E7        30.29R
$$

CTZ002-004>006-009-010-012-RIZ004-006-007-MAZ004-011-015-240400-
SOUTHERN NEW ENGLAND
 IN CT

CITY           SKY/WX    TMP DP  RH WIND       PRES   REMARKS
Bradley INTL   CLEAR     66  56  70 W3        30.25S
Hartford       CLEAR     69  58  67 S5        30.24S
Danbury        CLEAR     60  57  89 CALM      30.28S
Wtrbury/Oxford   N/A     64  54  68 S3        30.29F
Bridgeport     CLEAR     74  62  66 SW9       30.26S
Meriden        CLEAR     63  57  81 CALM      30.26S
New Haven      CLEAR     73  61  65 SW7       30.27S
Chester        FAIR      66  59  77 VRB3      30.27S
Groton         CLEAR     71  60  68 W10       30.26S
Wilimantic     CLEAR     65  59  81 CALM      30.26S

 IN RI

CITY           SKY/WX    TMP DP  RH WIND       PRES   REMARKS
Providence     CLEAR     67  57  70 W6        30.26R
Block Island   CLEAR     68  61  78 SW9       30.28S
Westerly       CLEAR     70  59  68 SW5       30.27S
 IN MA

CITY           SKY/WX    TMP DP  RH WIND       PRES   REMARKS
Boston         CLEAR     71  55  56 SW10      30.23R
Worcester      CLEAR     62  53  72 SW6       30.27R
Westfield      CLEAR     60  58  92 CALM      30.25S
Provincetown   CLEAR     66  59  78 SW10      30.25R
Nantucket      CLEAR     67  58  72 SW10      30.27R
$$

ANZ330-335-338-340-345-350-353-355-240400-
COASTAL MARINE OBSERVATIONS


STATION/POSITION TIME  SKY/WX   TEMP    WIND        PRES    VSBY  WAVE
                                AIR SEA DIR/SP/G                  HT/PER
                 (UTC)          (F)     (DEG/KT/KT) (MB)    (MI)  (FT/S)
NY HARB ENTRANCE 0150            75 77  220/ 14/ 16 1024.6          2/ 3
20S FIRE ISLAND  0250            74 77  200/ 10/ 12 1025.0          2/12
GREAT SOUTH BAY  0215            74 80  230/ 10/ 12   N/A
23 SSW MONTAUK P 0150            73 74  220/ 10/ 12 1025.5          1/ 8
15 E BARNEGAT LI 0200               77                N/A           2/11
HUDSON CANYON    0150            73 78              1025.6          2/ 7
KINGS POINT      0200            72 76              1024.5
EXECUTION ROCKS  0200            73     180/  8/ 12   N/A
CENTRAL LI SOUND 0200            74 75  220/ 14/ 17   N/A           1/ 3
EASTERN LI SOUND 0200            71 69  230/ 12/ 14   N/A
ROBBINS REEF     0200            74     190/ 11/ 13 1024.0
$$


>>>>>>>>>>>>>>>>>>>>>>>>>>>> KEY <<<<<<<<<<<<<<<<<<<<<<<<<<<
>                                                          <
>     SKY/WX - Sky Condition/Present Weather               <
>     TMP    - Temperature in Fahrenheit                   <
>     DP     - Dew Point in Fahrenheit                     <
>     RH     - Relative Humidity in Percent                <
>     WIND   - Direction (from) and Speed in MPH           <
>     PRES   - Mean Sea Level Pressure (inches of Hg)      <
>     WCI    - Wind Chill Index                            <
>     VSB    - VISIBILITY IN MILES                         <
>     HX     - HEAT INDEX                                  <
>     TC     - TEMPERATURE IN CELSIUS                      <
>     VRB    - VARIABLE WIND DIRECTION                     <
>                                                          <
>>>>>>>>>>>>>>>>>>>>>>>>>>>> KEY <<<<<<<<<<<<<<<<<<<<<<<<<<<




USA.gov is the U.S. government's official web portal to all federal, state and local government web resources and services.